www.pogodaiklimat.ru

Погода и климат >> Архив погоды >> Мальдивы >> Каадедхдху


ПОГОДА на Каадедхдху

  • Прогноз погоды на Каадедхдху
  • Монитор погоды на Каадедхдху

АРХИВ ПОГОДЫ на Каадедхдху

Время (UTC), дата Ветер
(напр.,м/с)
 
Видим.   Явления Облачность Т
(С)
Тd
(С)
f
(%)
Тe
(С)
Тes
(С)
Комфортность P
(гПа)
Po
(гПа)
Тmin
(С)
Tmax
(С)
R
(мм)
R24
(мм)
S
(см)
03 12.03 С 1 15 км 8/3 540 м
[Cu med, cong Ci fib]
+28.6 +24.6 79 +41 +44 опасность
перегрева
1013.7 1013.6 +27.0
06 12.03 С 2 15 км 5/3 540 м
[Cu med, cong Ci sp]
+29.6 +24.1 72 +41 +55 опасность
перегрева
1014.1 1014.0
09 12.03 С 2 15 км 6/3 540 м
[Cu med, cong Ci sp]
+30.5 +24.8 72 +44 +55 опасность
перегрева
1011.3 1011.2
12 12.03 С 3 15 км 8/3 540 м
[Cu med, cong Ci sp]
+29.8 +25.4 77 +44 +44 опасность
перегрева
1010.7 1010.6 +31.0
15 12.03 С 1 15 км 6/3 540 м
[Cu med, cong Ci sp]
+28.5 +23.6 75 +39 +39 очень
душно
1012.5 1012.4
18 12.03 С 2 15 км 8/4 540 м
[Cu med, cong Ci sp]
+28.4 +24.2 78 +40 +40 очень
душно
1013.4 1013.3
00 13.03 нст 1 15 км 8/3 540 м
[Cu med, cong Ci sp]
+26.3 +24.3 89 +37 +37 очень
душно
1011.3 1011.2
03 13.03 нст 1 15 км 4/3 540 м
[Cu med, cong Ci sp]
+29.0 +24.0 74 +40 +44 очень
душно
1012.7 1012.6 +25.0
06 13.03 С 3 15 км 4/3 540 м
[Cu med, cong Ci fib]
+29.8 +25.0 75 +43 +55 опасность
перегрева
1013.6 1013.5
09 13.03 С 2 15 км 4/3 540 м
[Cu med, cong Ci fib]
+30.4 +25.3 74 +44 +57 опасность
перегрева
1011.5 1011.4
12 13.03 С 2 15 км 5/4 540 м
[Cb cap Ci fib]
+30.0 +24.6 73 +43 +44 опасность
перегрева
1011.0 1010.9 +31.3
15 13.03 С 1 15 км 4/3 540 м
[Cu med, cong Ci fib]
+28.5 +24.3 78 +40 +40 очень
душно
1013.3 1013.2
18 13.03 С 2 15 км 4/3 540 м
[Cu med, cong Ci fib]
+28.2 +24.2 79 +39 +39 очень
душно
1014.3 1014.2
21 13.03 СЗ 2 15 км 5/3 540 м
[Cu med, cong Ci fib]
+28.0 +24.3 80 +39 +39 очень
душно
1012.6 1012.5
00 14.03 СЗ 4 15 км 5/3 540 м
[Cu med, cong Ci fib]
+28.0 +24.6 82 +40 +40 очень
душно
1011.8 1011.7
03 14.03 С 2 15 км 4/3 540 м
[Cu med, cong Ci fib]
+29.4 +24.8 76 +42 +45 опасность
перегрева
1013.3 1013.2 +27.0
06 14.03 С 2 15 км 4/3 540 м
[Cu med, cong Ci fib]
+31.0 +25.4 72 +45 +60 опасность
перегрева
1013.1 1013.0
09 14.03 СВ 1 15 км 4/3 540 м
[Cu med, cong Ci fib]
+31.0 +25.2 71 +45 +58 опасность
перегрева
1010.5 1010.4
12 14.03 СВ 4 9000 м 3/3 540 м
[Cu med, cong Ci fib]
+30.5 +24.3 70 +43 +44 опасность
перегрева
1010.7 1010.5 +33.2
15 14.03 15 км 1/1 540 м
[Cu hum Ci fib]
+28.8 +24.0 75 1013.0 1012.9
18 14.03 штиль 0 15 км 1/1 540 м
[Cu hum Ci fib]
+26.0 +24.6 92 +37 +37 очень
душно
1014.3 1014.2
21 14.03 штиль 0 15 км 3/1 540 м
[Cu hum Ci fib]
+25.2 +24.3 95 +35 +35 очень
душно
1011.9 1011.8
00 15.03 штиль 0 15 км 3/1 540 м
[Cu med, cong Ci fib]
+24.8 +24.2 96 +34 +34 очень
душно
1010.8 1010.7
03 15.03 нст 1 15 км 1/1 540 м
[Cu med, cong Ci fib]
+28.8 +25.7 83 +43 +48 опасность
перегрева
1012.4 1012.3 +24.0
06 15.03 нст 1 15 км 3/3 540 м
[Cu med, cong Ci fib]
+30.6 +25.5 74 +45 +61 опасность
перегрева
1012.8 1012.7
09 15.03 В 1 15 км 3/3 540 м
[Cu med, cong Ci fib]
+31.6 +25.7 71 +47 +61 опасность
перегрева
1010.1 1010.0
12 15.03 штиль 0 15 км 3/3 540 м
[Cu med, cong Ci fib]
+30.8 +25.4 73 +45 +47 опасность
перегрева
1009.6 1009.5 +32.0
15 15.03 штиль 0 15 км 5/4 540 м
[Cu med, cong Ac trans Ci fib]
+28.3 +25.8 86 +42 +42 опасность
перегрева
1012.1 1012.0
18 15.03 штиль 0 12 км в посл. час гроза {ливн. осадки} 8/5 500 м
[Cb cap Ac trans Ci sp]
+25.8 +24.8 94 +37 +37 очень
душно
1013.3 1013.2 2
21 15.03 нст 1 15 км 5/3 540 м
[Cb cap Ac trans Ci fib]
+25.6 +25.3 98 +37 +37 очень
душно
1010.4 1010.3
00 16.03 штиль 0 15 км 4/3 540 м
[Cu med, cong Ac trans Ci sp]
+26.0 +24.9 94 +37 +37 очень
душно
1010.0 1009.9 2
03 16.03 нст 1 10 км {ливн. осадки} 9/4 500 м
[Cb cap Ac As]
+27.2 +24.8 87 +39 +40 очень
душно
1013.0 1012.9 +25.0
06 16.03 нст 1 8000 м гроза, ливневой дождь 10/4 480 м
[Cb cap As op]
+26.2 +25.1 94 +38 +41 очень
душно
1014.4 1014.3 6
09 16.03 СЗ 1 9000 м {гроза, дождь} 9/3 540 м
[Cu med, cong Ac As]
+28.2 +25.1 83 +41 +46 опасность
перегрева
1010.4 1010.3
12 16.03 нст 1 9000 м {гроза, дождь} 9/3 500 м
[Cu med, cong Ac As]
+28.0 +24.6 82 +40 +40 очень
душно
1009.8 1009.7 +31.2 6
15 16.03 нст 1 10 км 9/4 540 м
[Cb cap Ac trans Cs]
+27.6 +24.4 83 +39 +39 очень
душно
1011.8 1011.7
18 16.03 нст 1 10 км 9/3 540 м
[Cu med, cong Ac trans Ci sp]
+27.8 +24.6 83 +39 +39 очень
душно
1013.1 1013.0
21 16.03 В 1 10 км 9/3 540 м
[Cu med, cong Ac und]
+28.0 +25.2 85 +41 +41 опасность
перегрева
1011.1 1011.0
00 17.03 В 2 12 км 5/3 540 м
[Cu med, cong Ac trans Ci sp]
+27.6 +23.8 80 +38 +38 очень
душно
1010.5 1010.4
03 17.03 нст 1 12 км 4/3 540 м
[Cu med, cong Ci fib]
+29.6 +25.2 77 +43 +47 опасность
перегрева
1012.5 1012.4 +25.2
06 17.03 СВ 2 15 км 5/3 540 м
[Cu med, cong Ci fib]
+30.0 +24.7 73 +43 +56 опасность
перегрева
1012.5 1012.4
09 17.03 С 1 15 км 4/3 540 м
[Cu med, cong Ci fib]
+30.5 +25.0 73 +44 +58 опасность
перегрева
1010.3 1010.2
12 17.03 нст 1 15 км 5/5 540 м
[Cb cap Ci sp]
+29.5 +25.2 78 +43 +44 опасность
перегрева
1010.3 1010.2 +31.4
15 17.03 нст 1 15 км 4/3 540 м
[Cb cap Ci sp]
+28.2 +24.5 80 +40 +40 очень
душно
1012.5 1012.4
18 17.03 С 2 15 км в посл. час ливневой дождь 4/3 540 м
[Cu med, cong Ac trans Ci sp]
+27.0 +25.6 92 +40 +40 очень
душно
1013.0 1012.9 0.9
21 17.03 штиль 0 15 км 9/3 540 м
[Cu med, cong Ac trans Ci sp]
+26.3 +25.7 97 +39 +39 очень
душно
1010.6 1010.5
00 18.03 штиль 0 15 км 4/3 540 м
[Cu med, cong Ci sp]
+25.0 +24.7 98 +35 +35 очень
душно
1010.0 1009.9 0.9
03 18.03 нст 1 15 км 3/3 540 м
[Cu med, cong Ci fib]
+28.8 +25.7 83 +43 +47 опасность
перегрева
1012.0 1011.9 +24.3
06 18.03 С 2 20 км 3/3 540 м
[Cu med, cong]
+30.5 +25.3 74 +44 +59 опасность
перегрева
1012.7 1012.6
09 18.03 СВ 1 18 км 4/4 540 м
[Cu med, cong Ci sp]
+31.0 +25.4 72 +45 +57 опасность
перегрева
1010.7 1010.6
12 18.03 С 2 18 км 3/3 540 м
[Cu med, cong Ci fib]
+30.4 +25.3 74 +44 +46 опасность
перегрева
1009.6 1009.5 +31.6
15 18.03 штиль 0 18 км 3/3 540 м
[Cu med, cong Ci fib]
+27.3 +25.3 89 +40 +40 очень
душно
1011.5 1011.4
18 18.03 нст 1 18 км 3/3 540 м
[Cu med, cong Ci fib]
+27.4 +24.7 85 +39 +39 очень
душно
1012.7 1012.6
21 18.03 штиль 0 18 км 3/3 540 м
[Cu med, cong Ci fib]
+25.5 +24.8 96 +36 +36 очень
душно
1010.0 1009.9
00 19.03 штиль 0 18 км 3/3 540 м
[Cu med, cong Ci fib]
+25.0 +24.4 96 +35 +35 очень
душно
1009.7 1009.6

 

Местоположение метеостанции Каадедхдху (Мальдивы): широта 0.48 долгота 72.98 высота над уровнем моря 2 м.

В архиве по умолчанию представлена погода на Каадедхдху за последнюю неделю. Архивные данные за месяц целиком и за предыдущие месяцы, начиная с января 2011 года, Вы можете получить, выбрав интересующий диапазон дат из раскрывающегося списка и нажав кнопку "Ввод!".


*Определитесь, кто Вы:
робот инопланетянин человек

Внимание! Время в таблицах - всемирное. Для получения местного времени необходимо прибавить поправку, которая равна 5 ч.

Смотрите также архив погоды в соседних городах и на ближайших метеорологических станциях:

Погода в Гане (Мальдивы) (130 км)
Погода на Кадхдху (Мальдивы) (166 км)
Погода в Мале (Мальдивы) (418 км)
Погода на Ханимааду (Мальдивы) (695 км)
Погода на Миникое (Лакшадвип, Индия) (870 км)
Погода в Каньякумари (Тамилнад, Индия) (983 км)
Погода в Тривандрам аэропорту (Керала, Индия) (992 км)
Погода в Тривандраме (Керала, Индия) (993 км)
Погода в Галле (Шри Ланка) (1013 км)
Погода в Ратмалане (Шри Ланка) (1041 км)

Пояснения к столбцам:

Ветер - указаны скорость ветра в м/с - средняя за 10 мин, порывы в срок и между сроками (в фигурных скобках) и направление, откуда дует ветер: С - северный, СВ - северо-восточный, В - восточный, ЮВ - юго-восточный, Ю - южный, ЮЗ - юго-западный, З - западный, СЗ - северо-западный.
Видимость - горизонтальная дальность видимости в метрах или километрах. При видимости от 1 до 10 км при отсутствии осадков обычно наблюдается дымка, при ухудшении видимости до 1 км и менее - туман. В сухую погоду видимость может ухудшаться дымом, пылью или мглою.
Явления - указаны атмосферные явления, наблюдавшиеся в срок или в последний час перед сроком; фигурными скобками обозначены явления, наблюдавшиеся между сроками (за 1-3 часа до срока); квадратными скобками обозначены град или гололедные отложения с указанием их диаметра в мм.
Облачность - указаны через наклонную черту общая и нижняя облачность в баллах и высота нижней границы облаков в метрах; квадратными скобками обозначены формы облаков: Ci - перистые, Cs - перисто-слоистые, Cc - перисто-кучевые, Ac - высококучевые, As - высокослоистые, Sc - слоисто-кучевые, Ns - слоисто-дождевые, Cu - кучевые, Cb - кучево-дождевые. Подробнее классификацию облаков см. в Атласе облаков (PDF).
T - Температура воздуха - температура, измеренная на высоте 2 м над землей.
Td - Температура точки росы - температура, при понижении до которой содержащийся в воздухе водяной пар достигнет насыщения.
f - Относительная влажность воздуха - влажноcть воздуха, измеренная на высоте 2 м над землей.
Te - Эффективная температура - температура, которую ощущает одетый по сезону человек в тени. Характеристика душности погоды. При расчете учитывается влияние влажности воздуха и скорости ветра на теплоощущения человека.
Tes - Эффективная температура на солнце - температура, которую ощущает человек, с поправкой на солнечный нагрев. Характеристика знойности погоды. Зависит от высоты солнца над горизонтом, облачности и скорости ветра. Ночью, в пасмурную погоду, а также при ветре 12 м/с и более поправка равна нулю.
P - Атмосферное давление - приведенное к уровню моря атмосферное давление.
Po - Атмосферное давление - измеренное на уровне метеостанции атмосферное давление.
Tmin - Минимальная температура - минимум температуры воздуха на высоте 2 м над землей.
Tmax - Максимальная температура - максимум температуры воздуха на высоте 2 м над землей.
R - Количество осадков - Количество выпавших осадков за период времени, мм. При наведении курсора мыши на число - период времени, за который выпало указанное количество осадков.
R24 - Количество осадков - Количество выпавших осадков за 24 часа, мм.
S - Снежный покров - Высота снежного покрова, см. При наведении курсора мыши на число - состояние снежного покрова и степень покрытия местности в баллах.